Regional Weather Roundup
Issued by NWS

Home | Current Version | Previous Version | Graphics & Text | Print | Product List | Glossary On
Versions: 1 2 3 4 5 6 7 8 9 10 11 12 13 14 15 16 17 18 19 20 21 22 23 24 25 26 27 28 29 30 31 32 33 34 35 36 37 38 39 40 41 42 43 44 45 46 47 48 49 50
000
ASUS43 KMKX 271221
RWRWI

WISCONSIN REGIONAL WEATHER ROUNDUP
NATIONAL WEATHER SERVICE MILWAUKEE/SULLIVAN WI
700 AM CDT FRI MAR 27 2015

NOTE: "FAIR" INDICATES FEW OR NO CLOUDS BELOW 12,000 FEET WITH NO
SIGNIFICANT WEATHER AND/OR OBSTRUCTIONS TO VISIBILITY.

WIZ001-002-006>008-014>016-023>028-271300-
NORTHWEST WISCONSIN

CITY           SKY/WX    TMP DP  RH WIND       PRES   REMARKS
SUPERIOR ARPT  CLEAR     16   6  67 N3        30.30R
6HR MIN TEMP:  15; 6HR MAX TEMP:  21;

ASHLAND        CLEAR     13   6  74 NW6       30.27R WCI   4
6HR MIN TEMP:  12; 6HR MAX TEMP:  19;

HAYWARD        CLEAR      9   5  84 CALM      30.24R
6HR MIN TEMP:   9; 6HR MAX TEMP:  16;

SIREN          CLEAR      7   2  80 CALM      30.28R
6HR MIN TEMP:   7; 6HR MAX TEMP:  20;

CUMBERLAND     CLEAR     12   7  79 NW5       30.25R WCI   4
RICE LAKE      CLEAR     16   8  70 NW3       30.26R
6HR MIN TEMP:  16; 6HR MAX TEMP:  21;

CHETEK         CLEAR     14   8  75 CALM      30.25R
6HR MIN TEMP:  14; 6HR MAX TEMP:  21;

LADYSMITH      CLEAR     14   8  76 NW3       30.23S
6HR MIN TEMP:  14; 6HR MAX TEMP:  19;

EAU CLAIRE     CLEAR     16   5  62 N3        30.25R
6HR MIN TEMP:  14; 6HR MAX TEMP:  20;

MENOMONIE      CLEAR     17   8  67 NW6       30.27R WCI   8
6HR MIN TEMP:  16; 6HR MAX TEMP:  23;

NEW RICHMOND   CLEAR     15   6  66 N5        30.27R WCI   8
6HR MIN TEMP:  14; 6HR MAX TEMP:  22;

OSCEOLA        CLEAR     13   7  79 CALM      30.31R
6HR MIN TEMP:  12; 6HR MAX TEMP:  24;

$$

WIZ003>005-009-010-017-018-271300-
NORTH CENTRAL WISCONSIN

CITY           SKY/WX    TMP DP  RH WIND       PRES   REMARKS
MANITOWISH WTR MOCLDY     4   1  88 CALM      30.16S
6HR MIN TEMP:   4; 6HR MAX TEMP:  16;

ARBOR VITAE    LGT SNOW   4   0  83 CALM      30.16R
6HR MIN TEMP:   4; 6HR MAX TEMP:  14;

WOODRUFF       LGT SNOW   4   0  83 CALM      30.16R
6HR MIN TEMP:   4; 6HR MAX TEMP:  14;

RHINELANDER    LGT SNOW  10   6  84 CALM      30.16R FOG
6HR MIN TEMP:   7; 6HR MAX TEMP:  14; 6HR PCP: TRACE;

EAGLE RIVER    CLEAR      1  -4  81 CALM      30.16R
6HR MIN TEMP:   1; 6HR MAX TEMP:  13;

LAND O LAKES   CLEAR     -3  -6  86 N3        30.17R
6HR MIN TEMP:  -5; 6HR MAX TEMP:  13;

PHILLIPS       PTCLDY     7   3  84 CALM      30.18R
6HR MIN TEMP:   7; 6HR MAX TEMP:  15;

TOMAHAWK       CLEAR     -2  -6  84 CALM      30.18S
6HR MIN TEMP:  -3; 6HR MAX TEMP:  10;

MEDFORD        CLOUDY     9   6  87 CALM      30.19R
6HR MIN TEMP:   7; 6HR MAX TEMP:  11;

MERRILL        CLEAR      7   4  88 CALM      30.19R
6HR MIN TEMP:   6; 6HR MAX TEMP:  11;

$$

WIZ029-030-035-036-043>047-271300-
CENTRAL WISCONSIN

CITY           SKY/WX    TMP DP  RH WIND       PRES   REMARKS
WAUSAU         CLEAR     13   7  77 NW3       30.18R
6HR MIN TEMP:  12; 6HR MAX TEMP:  16;

MOSINEE        CLEAR     12   7  79 N5        30.20R WCI   4
MARSHFIELD     CLEAR     13   6  74 NE5       30.19R WCI   5
6HR MIN TEMP:  13; 6HR MAX TEMP:  18;

STEVENS POINT  CLEAR     11   4  74 N3        30.21R
6HR MIN TEMP:   8; 6HR MAX TEMP:  15;

WAUPACA        CLEAR     17   7  65 N6        30.21R WCI   8
6HR MIN TEMP:  17; 6HR MAX TEMP:  22;

WAUTOMA        FAIR      16   8  70 N6        30.22R WCI   8
6HR MIN TEMP:  15; 6HR MAX TEMP:  21;

WISC RAPIDS    CLEAR     13   4  67 NE6       30.22R WCI   4
6HR MIN TEMP:  12; 6HR MAX TEMP:  19;

CAMP DOUGLAS   CLEAR     10   9  92 NW3       30.21R
$$

WIZ011>013-019>022-031-037>040-048>050-271300-
NORTHEAST WISCONSIN

CITY           SKY/WX    TMP DP  RH WIND       PRES   REMARKS
ANTIGO         CLEAR      6   3  86 NW3       30.17R
6HR MIN TEMP:   6; 6HR MAX TEMP:  12;

SHAWANO        CLEAR     16   7  65 N7        30.21S WCI   7
6HR MIN TEMP:  16; 6HR MAX TEMP:  19;

OCONTO         CLEAR     14   7  73 N6        30.20R WCI   5
6HR MIN TEMP:  14; 6HR MAX TEMP:  18;

STURGEON BAY   CLEAR     14   7  73 N10       30.20R WCI   1
6HR MIN TEMP:  14; 6HR MAX TEMP:  18;

GREEN BAY      CLEAR     17   8  67 N10       30.20R WCI   5
6HR MIN TEMP:  17; 6HR MAX TEMP:  20;

MANITOWOC      FAIR      17  11  77 N13       30.18  WCI   4
6HR MIN TEMP:  17; 6HR MAX TEMP:  21;

APPLETON       CLEAR     16   7  67 N10       30.18R WCI   3
CLINTONVILLE   CLEAR     18   5  57 N6        30.21R WCI   9
OSHKOSH        PTCLDY    17   7  64 N12       30.18R WCI   4
6HR MIN TEMP:  17; 6HR MAX TEMP:  23;

$$

WIZ032>034-041-042-053>061-271300-
SOUTHWEST WISCONSIN

CITY           SKY/WX    TMP DP  RH WIND       PRES   REMARKS
LA CROSSE      CLEAR     18  11  74 N3        30.25R
6HR MIN TEMP:  17; 6HR MAX TEMP:  27;

SPARTA         CLEAR      8   5  87 CALM      30.24R
6HR MIN TEMP:   8; 6HR MAX TEMP:  23;

VIROQUA        CLEAR     14   7  74 NW3       30.19R
6HR MIN TEMP:  14; 6HR MAX TEMP:  23;

BOSCOBEL       CLEAR     15   7  70 CALM      30.24R
6HR MIN TEMP:  14; 6HR MAX TEMP:  30;

PRAIRIE DU CHI CLEAR     19   6  56 CALM      30.24R
6HR MIN TEMP:  19; 6HR MAX TEMP:  32;

PLATTEVILLE    CLEAR     17   9  71 NW6       30.19R WCI   9
6HR MIN TEMP:  17; 6HR MAX TEMP:  30;

$$

WIZ056-057-062-063-064-067-068-271300-
SOUTH CENTRAL WISCONSIN

CITY           SKY/WX    TMP DP  RH WIND       PRES   REMARKS
REEDSBURG      PTCLDY    16   7  67 NW5       30.20S WCI   9
6HR MIN TEMP:  16; 6HR MAX TEMP:  24;

BARABOO/DELLS  PTCLDY    15   6  69 CALM      30.19S
6HR MIN TEMP:  15; 6HR MAX TEMP:  22;

LONE ROCK      CLEAR     18   6  59 N3        30.23R
6HR MIN TEMP:  17; 6HR MAX TEMP:  27;

MINERAL POINT  CLEAR     18   5  57 N5        30.18R WCI  11
MADISON        PTCLDY    16   7  67 N6        30.19R WCI   7
6HR MIN TEMP:  16; 6HR MAX TEMP:  25;

MIDDLETON      CLEAR     19   8  62 N7        30.20R WCI  10
6HR MIN TEMP:  19; 6HR MAX TEMP:  27;

WATERTOWN      CLEAR     17   8  67 N7        30.18R WCI   7
6HR MIN TEMP:  17; 6HR MAX TEMP:  26;

MONROE         CLEAR     18   9  68 N8        30.16R WCI   7
JANESVILLE     CLEAR     21   7  53 N9        30.17R WCI  11
$$

WIZ051-052-058>065-066-070>072-271300-
SOUTHEAST WISCONSIN

CITY           SKY/WX    TMP DP  RH WIND       PRES   REMARKS
MILWAUKEE      PTCLDY    18   4  54 N10       30.16R WCI   6
6HR MIN TEMP:  18; 6HR MAX TEMP:  27; 6HR PCP:  0.01;

WAUKESHA       CLEAR     16   3  57 NW9       30.17R WCI   4
MILWAUKEE/TIMM CLEAR     19   5  53 N9        30.18R WCI   9
RACINE         PTCLDY    18   4  54 NW13      30.16R WCI   5
6HR MIN TEMP:  18; 6HR MAX TEMP:  28; 6HR PCP:  0.02;

BURLINGTON     CLEAR     17   3  54 N10       30.16R WCI   5
6HR MIN TEMP:  17; 6HR MAX TEMP:  27;

KENOSHA        PTCLDY    20   5  52 N12G22    30.15R WCI   8
6HR MIN TEMP:  19; 6HR MAX TEMP:  29; 6HR PCP: TRACE;

FOND DU LAC    CLEAR     18   7  62 N8        30.18R WCI   8
6HR MIN TEMP:  18; 6HR MAX TEMP:  23;

SHEBOYGAN      CLEAR     17   8  67 NW9       30.17R WCI   6
6HR MIN TEMP:  17; 6HR MAX TEMP:  23;

WEST BEND      CLEAR     18   5  57 NW7       30.16R WCI   8
JUNEAU         CLEAR     16   8  71 NW7       30.19R WCI   6
6HR MIN TEMP:  15; 6HR MAX TEMP:  24;

$$

LSZ147-162-271300-
LAKE SUPERIOR

STATION/POSITION TIME  TEMP    WIND        PRES    WAVE
                       AIR SEA DIR/SP/G            HT/PER
                 (UTC) (F)     (DEG/KT/KT) (MB)    (FT/S)
DEVILS ISLAND    1200   18      50/ 12/ 13 1027.1R
PORT WING        1100   22      30/ 10/ 15 1025.1R
SAXON HARBOR     1140   22      30/  9/ 18 1024.4R
$$

LMZ867-665-643>646-271300-
LAKE MICHIGAN

STATION/POSITION TIME  TEMP    WIND        PRES    WAVE
                       AIR SEA DIR/SP/G            HT/PER



USA.gov is the U.S. government's official web portal to all federal, state and local government web resources and services.